Location: Kaarina
(60.4167°N, 22.4167°E)
Time: 07:50:25
(UTC+03:00)

SJ 16-02 - Pass Details

Date: 24 August 2019
Orbit: 605 x 618 km, 75.0° (Epoch: 15 September)

Event Time Altitude Azimuth Distance (km) Brightness Sun altitude
Rises 23:04:57 0° 210° (SSW) 2,876 4.6 -12.8°
Reaches altitude 10° 23:07:11 10° 211° (SSW) 1,977 3.7 -13.0°
Maximum altitude 23:11:36 85° 300° (WNW) 628 1.4 -13.3°
Drops below altitude 10° 23:16:05 10° 30° (NNE) 1,996 4.3 -13.6°
Sets 23:18:21 0° 31° (NNE) 2,907 5.2 -13.8°
